THOR AGENA B DEB, 511

Orbit data source: Space-Track

THOR AGENA B DEB, 511 is space debris in LEO originally from a launch on Sat, 29 Sep 1962 UTC launched from the Air Force Western Test Range (AFWTR). Debris objects in space refer to the collection of defunct objects orbiting the Earth. Examples of debris include non-operational satellites, rocket bodies, and fragments generated from explosions, collisions, or faulty payload assembly.

Loading next visibility...
Identifier
511, 1962-049D
Orbit
LEO
Country
Flag of USUS
Related business
Manufacturer
Unknown
Mission
Spacecraft
Bus & Motor
Unknown
Mass
Unknown
Launch date (UTC)
1962-09-29 (63 years ago)
Launch vehicle
Unknown
Launch site
Air Force Western Test Range (AFWTR)
Object type
Payload
Rocket body
Debris
Shape & HBR
Unknown shape, 0.1 m
Radar Cross Section
Small (<0.1 m²)

Expand to show TLE details & history
Last TLE update: 19 hours ago

TLE from 19 hours ago
0 THOR AGENA B DEB
1 00511U 62049D   25293.85422188  .00000109  00000-0  11668-3 0  9992
2 00511  80.4273  69.2658 0031204 231.5190 284.6696 13.68529137146849
Epoch: 2025-10-20T20:30Z
TLE epoch observation values (Epoch: 2025-10-20T20:30:04.770Z)
Latitude
23.82383°
Longitude
-92.05301°
Altitude
1,001.883 km
Speed
7.356 km/s
True Right ascension
16h 20m 04s
True Declination
23° 42' 04"
Sunlit
Object was in daylight at epoch
Visualization orbit readout
Latitude
Unknown
Longitude
Unknown
Altitude
Unknown
Speed
Unknown
Apparent Right ascension
Unknown
Apparent Declination
Unknown
Sunlit
N/A
Visualization observer readout
Local Sidereal Time
10:15:02
Azimuth
Unknown
Elevation
Unknown
Doppler factor
Unknown
Orbital elements
Apogee altitude
1,025.156 km
Perigee altitude
979.097 km
Semi-major axis
7,380.263 km
Eccentricity
0.00312
Inclination
80.4273°
RAAN
69.2658°
Arg. of periapsis
231.519°
True anomaly
284.32334°
Mean anomaly
284.6696°
Eccentric anomaly
284.49651°
Mean motion
3.42322 °/min
Orbital period
105.16 mins
BSTAR
0.00011668
Loading maneuver chart data...
Computing Atmospheric mass density...
Loading historical data...
Loading historical data...
Loading historical data...
Loading historical data...
Loading historical data...
Loading historical data...
Loading historical data...
Other satellites on launch #49 in the year 1962 (1962-09-29 UTC)

Documentation

Showing up to 5 results
|